GFSWCAN_prec_pwat_060.txt.gz
Precipitable_Water
0.81 0.78 0.78 0.74 0.69 0.63 0.62 0.60 0.55 0.56 0.57 0.54 0.53 0.53 0.55 0.56 0.53 0.51 0.46 0.52 0.42 0.34 0.35 0.37 0.39 0.35 0.37 0.34 0.28 0.46 0.46 0.49 0.44 0.32 0.30 0.28 0.25 0.28 0.26 0.29 0.27 0.25 0.26 0.26 0.28 0.24 0.19 0.36 0.38 0.29 0.39 0.49 0.48 0.47
0.84 0.80 0.77 0.76 0.69 0.64 0.62 0.61 0.55 0.57 0.57 0.53 0.52 0.53 0.54 0.57 0.55 0.54 0.43 0.53 0.54 0.40 0.36 0.46 0.47 0.47 0.44 0.44 0.37 0.36 0.47 0.46 0.49 0.40 0.37 0.36 0.28 0.29 0.27 0.21 0.34 0.23 0.27 0.25 0.28 0.28 0.37 0.44 0.42 0.46 0.49 0.50 0.52 0.53
0.82 0.82 0.77 0.72 0.68 0.64 0.64 0.60 0.54 0.56 0.55 0.53 0.53 0.52 0.53 0.53 0.54 0.55 0.49 0.51 0.47 0.37 0.35 0.36 0.36 0.43 0.49 0.49 0.51 0.35 0.38 0.54 0.51 0.53 0.44 0.42 0.32 0.36 0.25 0.26 0.30 0.33 0.37 0.29 0.30 0.34 0.39 0.43 0.48 0.51 0.52 0.54 0.57 0.56
0.88 0.78 0.74 0.70 0.67 0.67 0.63 0.58 0.55 0.55 0.55 0.55 0.53 0.52 0.52 0.52 0.54 0.55 0.46 0.49 0.44 0.38 0.26 0.29 0.45 0.43 0.49 0.49 0.49 0.49 0.44 0.48 0.53 0.49 0.39 0.39 0.36 0.48 0.36 0.37 0.34 0.37 0.39 0.34 0.31 0.34 0.38 0.44 0.48 0.51 0.55 0.58 0.58 0.62
0.77 0.75 0.71 0.67 0.67 0.66 0.64 0.58 0.57 0.57 0.56 0.56 0.53 0.50 0.51 0.52 0.54 0.51 0.49 0.49 0.51 0.40 0.31 0.36 0.45 0.48 0.54 0.55 0.49 0.48 0.46 0.44 0.38 0.35 0.35 0.33 0.42 0.44 0.46 0.44 0.40 0.45 0.40 0.36 0.31 0.39 0.38 0.39 0.44 0.50 0.54 0.56 0.59 0.61
0.72 0.69 0.67 0.68 0.66 0.65 0.63 0.59 0.58 0.58 0.57 0.56 0.52 0.50 0.51 0.53 0.50 0.44 0.34 0.47 0.55 0.53 0.40 0.33 0.47 0.49 0.55 0.50 0.45 0.46 0.44 0.47 0.47 0.40 0.36 0.38 0.44 0.42 0.36 0.36 0.47 0.49 0.51 0.52 0.45 0.49 0.49 0.49 0.48 0.49 0.51 0.58 0.61 0.63
0.72 0.70 0.69 0.66 0.65 0.64 0.63 0.60 0.58 0.58 0.58 0.55 0.53 0.52 0.52 0.51 0.47 0.36 0.34 0.45 0.58 0.57 0.41 0.35 0.38 0.48 0.56 0.49 0.42 0.38 0.40 0.37 0.38 0.36 0.35 0.35 0.35 0.38 0.33 0.26 0.37 0.46 0.51 0.53 0.55 0.55 0.50 0.52 0.46 0.52 0.54 0.57 0.58 0.58
0.71 0.69 0.64 0.66 0.65 0.65 0.62 0.60 0.59 0.57 0.58 0.55 0.54 0.49 0.49 0.49 0.48 0.42 0.49 0.55 0.57 0.47 0.44 0.32 0.33 0.40 0.56 0.43 0.39 0.45 0.38 0.37 0.35 0.32 0.31 0.25 0.24 0.22 0.14 0.18 0.25 0.39 0.49 0.56 0.59 0.59 0.60 0.60 0.56 0.54 0.57 0.57 0.54 0.52
0.67 0.67 0.64 0.65 0.65 0.64 0.61 0.61 0.59 0.58 0.57 0.54 0.51 0.46 0.44 0.40 0.35 0.39 0.51 0.57 0.58 0.48 0.35 0.35 0.31 0.31 0.53 0.48 0.48 0.44 0.43 0.33 0.39 0.33 0.30 0.31 0.30 0.23 0.28 0.33 0.31 0.34 0.45 0.52 0.57 0.58 0.58 0.58 0.56 0.55 0.55 0.54 0.52 0.51
0.63 0.64 0.62 0.64 0.63 0.62 0.62 0.62 0.60 0.56 0.56 0.51 0.42 0.32 0.28 0.38 0.48 0.47 0.45 0.38 0.41 0.43 0.43 0.35 0.42 0.37 0.46 0.46 0.43 0.40 0.42 0.35 0.30 0.35 0.41 0.34 0.29 0.36 0.43 0.48 0.51 0.55 0.57 0.59 0.52 0.51 0.54 0.54 0.56 0.56 0.54 0.54 0.54 0.53
0.62 0.62 0.62 0.64 0.63 0.63 0.64 0.65 0.60 0.57 0.52 0.40 0.31 0.27 0.40 0.46 0.35 0.34 0.28 0.28 0.32 0.31 0.39 0.41 0.43 0.38 0.51 0.39 0.40 0.46 0.39 0.39 0.30 0.36 0.35 0.34 0.34 0.46 0.55 0.55 0.55 0.56 0.58 0.58 0.60 0.61 0.61 0.59 0.58 0.56 0.54 0.54 0.55 0.55
0.62 0.60 0.61 0.62 0.62 0.64 0.64 0.66 0.63 0.53 0.45 0.41 0.38 0.41 0.37 0.30 0.28 0.23 0.23 0.28 0.28 0.27 0.38 0.38 0.42 0.45 0.48 0.54 0.45 0.45 0.37 0.39 0.29 0.45 0.36 0.30 0.41 0.49 0.50 0.51 0.56 0.60 0.59 0.58 0.58 0.58 0.61 0.61 0.60 0.59 0.58 0.58 0.58 0.59
0.59 0.59 0.62 0.60 0.61 0.64 0.65 0.64 0.63 0.56 0.52 0.44 0.33 0.25 0.23 0.26 0.18 0.17 0.16 0.21 0.24 0.34 0.39 0.40 0.38 0.44 0.49 0.52 0.45 0.43 0.34 0.32 0.44 0.33 0.30 0.37 0.45 0.46 0.47 0.49 0.51 0.57 0.59 0.60 0.60 0.60 0.59 0.59 0.60 0.60 0.58 0.58 0.57 0.57
0.60 0.63 0.60 0.60 0.62 0.65 0.63 0.60 0.60 0.56 0.45 0.31 0.22 0.16 0.17 0.17 0.20 0.21 0.22 0.26 0.33 0.35 0.37 0.39 0.38 0.40 0.45 0.41 0.42 0.34 0.39 0.41 0.30 0.26 0.28 0.40 0.44 0.46 0.48 0.51 0.51 0.52 0.54 0.56 0.56 0.56 0.57 0.59 0.58 0.57 0.55 0.51 0.47 0.46
0.64 0.62 0.60 0.61 0.63 0.66 0.61 0.59 0.59 0.55 0.41 0.29 0.23 0.15 0.17 0.22 0.26 0.29 0.31 0.31 0.34 0.38 0.37 0.35 0.37 0.40 0.38 0.37 0.40 0.38 0.33 0.28 0.30 0.29 0.39 0.45 0.48 0.47 0.48 0.50 0.51 0.52 0.54 0.56 0.56 0.56 0.58 0.54 0.49 0.50 0.51 0.50 0.46 0.41
0.67 0.64 0.59 0.60 0.65 0.66 0.64 0.59 0.56 0.53 0.42 0.32 0.26 0.17 0.21 0.21 0.22 0.24 0.26 0.25 0.34 0.34 0.35 0.34 0.33 0.32 0.31 0.35 0.33 0.31 0.30 0.27 0.34 0.42 0.48 0.49 0.48 0.49 0.49 0.50 0.49 0.53 0.54 0.56 0.57 0.58 0.58 0.50 0.44 0.42 0.41 0.37 0.37 0.36
0.54 0.46 0.55 0.61 0.67 0.66 0.65 0.57 0.53 0.44 0.37 0.31 0.24 0.26 0.24 0.24 0.23 0.25 0.27 0.28 0.35 0.30 0.25 0.30 0.26 0.27 0.35 0.29 0.28 0.36 0.32 0.38 0.44 0.48 0.51 0.50 0.49 0.48 0.49 0.49 0.49 0.51 0.47 0.45 0.54 0.57 0.57 0.55 0.47 0.37 0.32 0.31 0.33 0.33
0.44 0.51 0.57 0.64 0.64 0.62 0.57 0.56 0.48 0.40 0.31 0.30 0.24 0.25 0.27 0.26 0.24 0.25 0.27 0.30 0.31 0.30 0.30 0.28 0.33 0.26 0.26 0.24 0.27 0.37 0.42 0.46 0.48 0.47 0.47 0.48 0.51 0.51 0.50 0.48 0.50 0.50 0.51 0.52 0.56 0.56 0.54 0.45 0.40 0.36 0.32 0.30 0.30 0.29
0.53 0.58 0.64 0.65 0.63 0.56 0.49 0.50 0.50 0.32 0.31 0.30 0.30 0.30 0.27 0.28 0.30 0.30 0.31 0.34 0.37 0.38 0.35 0.33 0.27 0.23 0.24 0.28 0.29 0.34 0.38 0.39 0.39 0.41 0.43 0.46 0.48 0.50 0.50 0.50 0.47 0.46 0.47 0.50 0.48 0.52 0.49 0.45 0.43 0.38 0.34 0.32 0.30 0.29
0.60 0.63 0.63 0.66 0.64 0.52 0.45 0.43 0.45 0.34 0.28 0.30 0.31 0.27 0.27 0.26 0.29 0.30 0.31 0.33 0.34 0.32 0.29 0.24 0.21 0.22 0.21 0.24 0.28 0.28 0.30 0.32 0.31 0.30 0.31 0.35 0.40 0.43 0.45 0.46 0.47 0.47 0.45 0.44 0.47 0.51 0.47 0.43 0.43 0.41 0.36 0.32 0.31 0.29
0.62 0.63 0.64 0.66 0.57 0.53 0.46 0.39 0.34 0.34 0.32 0.28 0.28 0.27 0.24 0.27 0.27 0.27 0.27 0.33 0.30 0.28 0.22 0.20 0.19 0.19 0.24 0.27 0.30 0.29 0.28 0.28 0.24 0.24 0.26 0.28 0.34 0.39 0.41 0.45 0.46 0.47 0.46 0.48 0.49 0.50 0.48 0.47 0.45 0.41 0.34 0.30 0.29 0.28
0.58 0.64 0.57 0.57 0.47 0.46 0.40 0.41 0.34 0.34 0.28 0.25 0.24 0.24 0.22 0.22 0.23 0.26 0.29 0.27 0.26 0.24 0.21 0.17 0.17 0.18 0.20 0.21 0.23 0.24 0.23 0.24 0.25 0.26 0.28 0.29 0.30 0.31 0.34 0.39 0.41 0.41 0.42 0.44 0.44 0.45 0.47 0.47 0.43 0.39 0.31 0.27 0.27 0.26
0.59 0.58 0.51 0.48 0.40 0.37 0.31 0.38 0.30 0.29 0.23 0.23 0.23 0.20 0.20 0.22 0.25 0.29 0.22 0.23 0.24 0.19 0.17 0.17 0.18 0.22 0.21 0.22 0.20 0.20 0.22 0.21 0.21 0.20 0.20 0.23 0.28 0.35 0.38 0.39 0.40 0.40 0.40 0.41 0.44 0.43 0.41 0.42 0.40 0.34 0.27 0.23 0.22 0.22
0.54 0.47 0.40 0.37 0.35 0.28 0.30 0.26 0.27 0.25 0.24 0.21 0.19 0.18 0.20 0.22 0.26 0.22 0.18 0.19 0.17 0.17 0.15 0.15 0.18 0.19 0.20 0.18 0.17 0.17 0.18 0.17 0.14 0.14 0.15 0.14 0.13 0.16 0.25 0.30 0.35 0.37 0.39 0.42 0.43 0.43 0.43 0.41 0.37 0.30 0.25 0.22 0.21 0.20
0.34 0.34 0.35 0.29 0.31 0.25 0.22 0.21 0.21 0.21 0.18 0.20 0.20 0.21 0.22 0.25 0.21 0.18 0.16 0.17 0.14 0.14 0.16 0.18 0.20 0.20 0.17 0.17 0.18 0.17 0.18 0.16 0.13 0.14 0.15 0.16 0.15 0.13 0.13 0.17 0.23 0.29 0.36 0.36 0.36 0.38 0.38 0.36 0.32 0.28 0.23 0.20 0.19 0.19
0.27 0.31 0.26 0.25 0.24 0.22 0.20 0.17 0.18 0.18 0.20 0.20 0.22 0.23 0.24 0.22 0.19 0.17 0.18 0.17 0.15 0.15 0.16 0.18 0.17 0.17 0.17 0.18 0.17 0.18 0.18 0.19 0.18 0.17 0.17 0.18 0.17 0.14 0.12 0.11 0.12 0.17 0.23 0.27 0.31 0.34 0.34 0.33 0.29 0.26 0.22 0.22 0.23 0.23
0.24 0.24 0.28 0.31 0.27 0.24 0.21 0.22 0.23 0.21 0.20 0.20 0.21 0.21 0.21 0.17 0.16 0.18 0.20 0.20 0.18 0.19 0.21 0.22 0.21 0.18 0.19 0.19 0.20 0.21 0.21 0.21 0.20 0.19 0.20 0.19 0.19 0.18 0.16 0.14 0.12 0.13 0.18 0.20 0.22 0.25 0.27 0.29 0.30 0.30 0.29 0.27 0.27 0.27
0.29 0.27 0.21 0.24 0.25 0.26 0.22 0.21 0.21 0.20 0.21 0.23 0.21 0.17 0.16 0.15 0.15 0.19 0.20 0.21 0.21 0.20 0.20 0.21 0.21 0.20 0.20 0.20 0.20 0.20 0.20 0.21 0.20 0.20 0.19 0.19 0.18 0.17 0.16 0.16 0.17 0.18 0.19 0.18 0.17 0.19 0.20 0.22 0.24 0.25 0.26 0.28 0.28 0.29
0.25 0.28 0.27 0.23 0.24 0.24 0.24 0.22 0.22 0.24 0.25 0.23 0.19 0.18 0.18 0.20 0.21 0.21 0.21 0.21 0.21 0.19 0.18 0.17 0.18 0.20 0.20 0.20 0.20 0.20 0.19 0.18 0.16 0.13 0.12 0.11 0.11 0.12 0.14 0.15 0.16 0.17 0.18 0.18 0.18 0.18 0.17 0.19 0.20 0.21 0.22 0.24 0.26 0.29
0.23 0.28 0.23 0.24 0.23 0.23 0.25 0.26 0.24 0.25 0.24 0.23 0.22 0.20 0.19 0.19 0.19 0.19 0.18 0.17 0.16 0.15 0.15 0.15 0.16 0.16 0.14 0.15 0.14 0.15 0.17 0.17 0.17 0.15 0.12 0.11 0.12 0.14 0.16 0.17 0.17 0.18 0.18 0.18 0.18 0.18 0.19 0.20 0.19 0.19 0.20 0.21 0.22 0.24
0.26 0.25 0.21 0.21 0.19 0.21 0.22 0.24 0.24 0.23 0.22 0.20 0.19 0.16 0.14 0.14 0.14 0.15 0.14 0.14 0.14 0.14 0.14 0.13 0.14 0.15 0.14 0.14 0.14 0.13 0.13 0.17 0.17 0.17 0.17 0.17 0.17 0.17 0.18 0.18 0.19 0.19 0.19 0.18 0.18 0.18 0.17 0.18 0.18 0.17 0.17 0.18 0.19 0.21
0.26 0.25 0.23 0.20 0.20 0.22 0.22 0.19 0.17 0.15 0.14 0.13 0.12 0.12 0.12 0.11 0.10 0.12 0.15 0.15 0.15 0.14 0.15 0.16 0.15 0.15 0.17 0.18 0.18 0.18 0.18 0.18 0.18 0.19 0.19 0.18 0.18 0.19 0.20 0.20 0.20 0.20 0.19 0.19 0.18 0.18 0.18 0.18 0.18 0.18 0.18 0.19 0.19 0.20
0.23 0.22 0.21 0.19 0.17 0.16 0.16 0.15 0.14 0.13 0.12 0.11 0.10 0.11 0.11 0.12 0.11 0.15 0.18 0.18 0.19 0.19 0.18 0.18 0.19 0.19 0.19 0.19 0.19 0.18 0.18 0.18 0.19 0.20 0.20 0.21 0.22 0.22 0.22 0.22 0.22 0.21 0.20 0.19 0.18 0.18 0.18 0.18 0.19 0.19 0.19 0.19 0.19 0.20

GFSWCAN_prec_pwat_063.txt.gz
Precipitable_Water
1.13 0.93 0.85 0.78 0.72 0.70 0.63 0.62 0.57 0.56 0.56 0.52 0.51 0.52 0.56 0.55 0.53 0.48 0.45 0.50 0.40 0.31 0.33 0.36 0.35 0.33 0.35 0.36 0.29 0.40 0.44 0.48 0.46 0.35 0.31 0.29 0.26 0.29 0.28 0.30 0.28 0.26 0.26 0.27 0.28 0.23 0.18 0.36 0.38 0.29 0.36 0.44 0.49 0.47
1.07 0.91 0.84 0.76 0.73 0.69 0.63 0.63 0.56 0.57 0.56 0.51 0.51 0.53 0.55 0.54 0.53 0.51 0.41 0.52 0.52 0.36 0.32 0.43 0.43 0.45 0.44 0.43 0.39 0.37 0.40 0.44 0.48 0.41 0.38 0.36 0.28 0.29 0.27 0.22 0.34 0.23 0.27 0.24 0.27 0.26 0.36 0.41 0.43 0.49 0.48 0.46 0.50 0.51
1.04 0.88 0.81 0.76 0.73 0.71 0.64 0.64 0.57 0.58 0.54 0.51 0.52 0.53 0.53 0.52 0.52 0.50 0.44 0.48 0.44 0.34 0.34 0.33 0.33 0.41 0.47 0.48 0.50 0.36 0.38 0.48 0.49 0.54 0.45 0.42 0.33 0.37 0.25 0.26 0.29 0.33 0.37 0.29 0.29 0.31 0.36 0.41 0.46 0.49 0.51 0.50 0.54 0.57
0.97 0.88 0.83 0.77 0.76 0.71 0.66 0.61 0.58 0.57 0.54 0.53 0.53 0.53 0.51 0.50 0.52 0.49 0.40 0.47 0.45 0.38 0.27 0.29 0.44 0.43 0.51 0.50 0.48 0.47 0.45 0.47 0.49 0.49 0.43 0.39 0.35 0.46 0.35 0.36 0.33 0.35 0.37 0.33 0.32 0.34 0.37 0.39 0.45 0.49 0.51 0.54 0.56 0.58
0.96 0.85 0.82 0.79 0.75 0.67 0.65 0.59 0.58 0.57 0.56 0.55 0.54 0.51 0.51 0.51 0.49 0.45 0.43 0.48 0.51 0.39 0.29 0.32 0.44 0.50 0.55 0.54 0.51 0.49 0.46 0.44 0.39 0.34 0.36 0.36 0.39 0.38 0.40 0.40 0.35 0.43 0.38 0.35 0.32 0.42 0.42 0.40 0.45 0.48 0.48 0.52 0.57 0.58
0.89 0.86 0.83 0.79 0.72 0.67 0.65 0.60 0.58 0.58 0.56 0.57 0.54 0.52 0.50 0.50 0.47 0.39 0.30 0.44 0.53 0.51 0.36 0.29 0.44 0.48 0.51 0.49 0.44 0.47 0.48 0.44 0.42 0.39 0.37 0.37 0.41 0.40 0.33 0.32 0.42 0.46 0.48 0.50 0.45 0.48 0.49 0.49 0.51 0.52 0.46 0.49 0.57 0.61
0.90 0.90 0.83 0.75 0.68 0.66 0.66 0.60 0.59 0.57 0.58 0.58 0.55 0.53 0.52 0.50 0.43 0.31 0.30 0.43 0.53 0.53 0.37 0.31 0.32 0.44 0.53 0.49 0.47 0.42 0.40 0.37 0.40 0.41 0.39 0.38 0.38 0.39 0.31 0.24 0.29 0.34 0.42 0.49 0.56 0.54 0.48 0.51 0.50 0.56 0.54 0.52 0.57 0.59
0.92 0.86 0.81 0.69 0.65 0.67 0.61 0.59 0.59 0.59 0.59 0.57 0.55 0.52 0.50 0.48 0.46 0.37 0.44 0.50 0.51 0.43 0.40 0.29 0.29 0.37 0.54 0.43 0.39 0.47 0.40 0.39 0.35 0.33 0.32 0.27 0.27 0.24 0.18 0.27 0.31 0.25 0.24 0.32 0.47 0.60 0.59 0.61 0.62 0.61 0.61 0.57 0.54 0.53
0.83 0.80 0.71 0.67 0.68 0.61 0.61 0.60 0.60 0.61 0.59 0.57 0.54 0.51 0.45 0.40 0.32 0.37 0.49 0.53 0.53 0.43 0.31 0.34 0.30 0.29 0.50 0.46 0.47 0.45 0.43 0.33 0.40 0.34 0.34 0.32 0.29 0.25 0.25 0.31 0.40 0.45 0.32 0.31 0.46 0.54 0.55 0.58 0.59 0.61 0.60 0.58 0.55 0.54
0.80 0.75 0.71 0.69 0.64 0.61 0.61 0.62 0.63 0.62 0.60 0.55 0.47 0.36 0.29 0.36 0.46 0.46 0.43 0.34 0.35 0.38 0.39 0.33 0.39 0.33 0.43 0.44 0.42 0.40 0.41 0.36 0.30 0.35 0.41 0.34 0.32 0.39 0.45 0.49 0.49 0.49 0.50 0.54 0.48 0.48 0.51 0.52 0.54 0.57 0.58 0.60 0.59 0.57
0.77 0.69 0.71 0.68 0.64 0.64 0.63 0.65 0.63 0.62 0.58 0.44 0.35 0.31 0.41 0.46 0.36 0.33 0.26 0.24 0.27 0.26 0.33 0.34 0.37 0.35 0.49 0.38 0.38 0.46 0.38 0.39 0.29 0.35 0.34 0.32 0.32 0.43 0.51 0.50 0.53 0.56 0.54 0.54 0.58 0.59 0.62 0.59 0.56 0.56 0.58 0.60 0.61 0.59
0.71 0.69 0.68 0.67 0.64 0.64 0.65 0.65 0.62 0.57 0.50 0.43 0.42 0.44 0.39 0.30 0.27 0.22 0.21 0.25 0.23 0.21 0.31 0.30 0.34 0.39 0.43 0.50 0.42 0.45 0.38 0.39 0.28 0.44 0.34 0.28 0.39 0.48 0.47 0.47 0.48 0.53 0.57 0.57 0.59 0.57 0.59 0.61 0.62 0.60 0.60 0.59 0.60 0.61
0.68 0.65 0.67 0.68 0.63 0.68 0.66 0.65 0.61 0.58 0.55 0.49 0.38 0.31 0.26 0.25 0.18 0.16 0.14 0.18 0.19 0.28 0.31 0.31 0.29 0.35 0.42 0.48 0.42 0.41 0.34 0.32 0.45 0.34 0.30 0.35 0.43 0.46 0.47 0.48 0.49 0.53 0.56 0.58 0.58 0.60 0.60 0.59 0.60 0.60 0.59 0.59 0.58 0.58
0.65 0.65 0.64 0.63 0.68 0.68 0.64 0.64 0.59 0.53 0.45 0.35 0.28 0.21 0.19 0.17 0.19 0.20 0.20 0.22 0.28 0.29 0.28 0.30 0.29 0.31 0.37 0.35 0.39 0.33 0.38 0.40 0.30 0.26 0.28 0.40 0.44 0.46 0.48 0.50 0.50 0.50 0.53 0.55 0.56 0.58 0.57 0.57 0.57 0.57 0.56 0.54 0.50 0.45
0.63 0.63 0.62 0.66 0.70 0.64 0.62 0.62 0.59 0.51 0.40 0.32 0.29 0.20 0.19 0.22 0.25 0.25 0.28 0.28 0.29 0.31 0.29 0.27 0.26 0.30 0.30 0.31 0.36 0.36 0.31 0.27 0.29 0.29 0.38 0.46 0.49 0.50 0.49 0.51 0.50 0.51 0.52 0.53 0.55 0.56 0.56 0.55 0.52 0.50 0.50 0.48 0.46 0.43
0.63 0.64 0.64 0.69 0.68 0.64 0.63 0.60 0.55 0.50 0.39 0.33 0.31 0.25 0.25 0.22 0.21 0.24 0.25 0.24 0.29 0.29 0.29 0.26 0.24 0.24 0.25 0.30 0.29 0.28 0.28 0.26 0.33 0.41 0.47 0.50 0.50 0.50 0.49 0.50 0.49 0.51 0.53 0.53 0.54 0.55 0.55 0.53 0.50 0.45 0.41 0.37 0.36 0.36
0.59 0.58 0.67 0.68 0.68 0.65 0.63 0.55 0.51 0.42 0.36 0.32 0.29 0.33 0.27 0.24 0.23 0.23 0.25 0.25 0.32 0.27 0.19 0.23 0.19 0.20 0.29 0.26 0.26 0.32 0.30 0.37 0.43 0.46 0.49 0.51 0.49 0.49 0.51 0.50 0.50 0.51 0.53 0.51 0.50 0.55 0.55 0.56 0.55 0.44 0.34 0.32 0.32 0.33
0.52 0.63 0.67 0.68 0.62 0.61 0.58 0.56 0.47 0.41 0.33 0.35 0.31 0.31 0.30 0.29 0.26 0.25 0.29 0.32 0.29 0.25 0.25 0.22 0.26 0.21 0.21 0.21 0.24 0.33 0.39 0.43 0.46 0.45 0.44 0.44 0.46 0.48 0.49 0.48 0.49 0.49 0.48 0.47 0.52 0.55 0.55 0.53 0.45 0.42 0.39 0.35 0.32 0.31
0.49 0.56 0.58 0.61 0.60 0.54 0.47 0.48 0.48 0.35 0.35 0.37 0.38 0.36 0.31 0.30 0.31 0.30 0.30 0.31 0.33 0.33 0.29 0.26 0.22 0.20 0.22 0.25 0.25 0.29 0.32 0.34 0.33 0.35 0.37 0.38 0.37 0.38 0.41 0.46 0.47 0.47 0.47 0.47 0.49 0.50 0.52 0.54 0.48 0.47 0.44 0.40 0.36 0.35
0.56 0.58 0.61 0.64 0.61 0.49 0.42 0.42 0.48 0.38 0.33 0.37 0.37 0.32 0.31 0.30 0.32 0.32 0.31 0.31 0.31 0.29 0.25 0.21 0.21 0.25 0.23 0.24 0.26 0.25 0.25 0.28 0.26 0.23 0.24 0.24 0.26 0.31 0.35 0.40 0.42 0.44 0.44 0.44 0.45 0.45 0.44 0.49 0.49 0.44 0.43 0.40 0.35 0.32
0.56 0.60 0.63 0.61 0.55 0.52 0.46 0.41 0.38 0.38 0.37 0.33 0.33 0.32 0.30 0.31 0.28 0.27 0.27 0.32 0.28 0.25 0.20 0.23 0.26 0.27 0.26 0.25 0.25 0.25 0.26 0.26 0.24 0.22 0.23 0.24 0.28 0.28 0.27 0.31 0.39 0.43 0.42 0.43 0.43 0.45 0.48 0.50 0.52 0.50 0.45 0.41 0.36 0.32
0.55 0.61 0.56 0.57 0.50 0.48 0.42 0.44 0.39 0.40 0.35 0.33 0.30 0.30 0.25 0.23 0.22 0.24 0.28 0.25 0.23 0.23 0.24 0.24 0.26 0.24 0.21 0.20 0.20 0.22 0.24 0.24 0.24 0.25 0.24 0.23 0.21 0.24 0.29 0.32 0.32 0.34 0.38 0.41 0.42 0.42 0.44 0.47 0.48 0.47 0.44 0.40 0.35 0.29
0.58 0.56 0.52 0.50 0.42 0.39 0.34 0.41 0.34 0.34 0.29 0.28 0.27 0.24 0.23 0.22 0.22 0.25 0.20 0.22 0.22 0.25 0.26 0.25 0.23 0.21 0.18 0.20 0.22 0.22 0.22 0.22 0.20 0.18 0.15 0.14 0.14 0.14 0.16 0.21 0.28 0.32 0.34 0.37 0.41 0.42 0.43 0.45 0.46 0.45 0.41 0.38 0.32 0.27
0.57 0.47 0.40 0.39 0.38 0.31 0.34 0.30 0.33 0.31 0.30 0.27 0.23 0.20 0.20 0.20 0.22 0.20 0.17 0.18 0.22 0.25 0.23 0.20 0.19 0.17 0.17 0.18 0.19 0.18 0.19 0.20 0.18 0.16 0.16 0.15 0.14 0.14 0.14 0.13 0.14 0.18 0.24 0.29 0.34 0.36 0.40 0.42 0.43 0.43 0.41 0.36 0.30 0.25
0.36 0.35 0.36 0.31 0.34 0.29 0.27 0.27 0.28 0.27 0.22 0.22 0.20 0.19 0.19 0.22 0.19 0.18 0.16 0.18 0.20 0.20 0.20 0.18 0.17 0.17 0.15 0.16 0.18 0.18 0.20 0.19 0.17 0.15 0.15 0.15 0.16 0.17 0.16 0.16 0.14 0.13 0.15 0.17 0.20 0.25 0.31 0.36 0.38 0.37 0.35 0.31 0.26 0.23
0.26 0.32 0.30 0.30 0.29 0.28 0.27 0.24 0.24 0.22 0.22 0.20 0.20 0.21 0.22 0.21 0.19 0.17 0.17 0.19 0.20 0.21 0.20 0.18 0.16 0.16 0.17 0.19 0.17 0.17 0.19 0.20 0.20 0.18 0.18 0.19 0.18 0.17 0.16 0.15 0.13 0.12 0.15 0.16 0.15 0.17 0.20 0.24 0.26 0.29 0.29 0.28 0.27 0.24
0.25 0.27 0.31 0.34 0.30 0.28 0.25 0.24 0.23 0.21 0.19 0.19 0.21 0.21 0.21 0.18 0.16 0.18 0.20 0.21 0.20 0.22 0.22 0.21 0.20 0.18 0.19 0.20 0.21 0.21 0.21 0.22 0.21 0.21 0.22 0.22 0.22 0.21 0.19 0.16 0.14 0.15 0.16 0.16 0.17 0.16 0.15 0.16 0.18 0.21 0.23 0.24 0.26 0.27
0.30 0.29 0.25 0.28 0.27 0.27 0.23 0.22 0.21 0.20 0.21 0.23 0.22 0.19 0.18 0.17 0.15 0.18 0.20 0.22 0.22 0.22 0.21 0.20 0.21 0.21 0.21 0.21 0.21 0.21 0.22 0.23 0.23 0.23 0.22 0.22 0.22 0.21 0.19 0.18 0.18 0.17 0.17 0.17 0.17 0.17 0.17 0.17 0.16 0.16 0.17 0.18 0.20 0.21
0.26 0.29 0.28 0.24 0.25 0.25 0.24 0.22 0.22 0.23 0.25 0.23 0.20 0.19 0.19 0.21 0.22 0.22 0.22 0.22 0.21 0.19 0.17 0.16 0.16 0.19 0.20 0.21 0.21 0.22 0.22 0.21 0.19 0.16 0.15 0.14 0.15 0.16 0.18 0.17 0.16 0.15 0.16 0.16 0.17 0.18 0.18 0.18 0.18 0.17 0.17 0.17 0.19 0.20
0.24 0.28 0.25 0.24 0.23 0.22 0.25 0.27 0.25 0.27 0.27 0.26 0.25 0.23 0.22 0.22 0.22 0.21 0.19 0.17 0.16 0.15 0.16 0.16 0.17 0.16 0.16 0.16 0.16 0.17 0.19 0.19 0.18 0.16 0.14 0.13 0.14 0.17 0.17 0.17 0.17 0.17 0.18 0.17 0.17 0.18 0.19 0.19 0.19 0.20 0.19 0.17 0.16 0.16
0.25 0.25 0.22 0.24 0.23 0.25 0.27 0.28 0.28 0.26 0.24 0.22 0.21 0.19 0.17 0.17 0.18 0.19 0.16 0.15 0.14 0.14 0.13 0.13 0.14 0.15 0.14 0.14 0.14 0.14 0.13 0.17 0.18 0.18 0.18 0.17 0.17 0.18 0.18 0.19 0.19 0.19 0.18 0.18 0.17 0.17 0.17 0.17 0.17 0.17 0.17 0.17 0.17 0.17
0.24 0.22 0.20 0.18 0.18 0.21 0.22 0.20 0.20 0.19 0.19 0.18 0.16 0.16 0.15 0.13 0.11 0.12 0.14 0.15 0.15 0.15 0.16 0.16 0.16 0.16 0.18 0.18 0.19 0.19 0.20 0.19 0.20 0.20 0.19 0.19 0.18 0.18 0.19 0.20 0.20 0.20 0.19 0.18 0.18 0.18 0.18 0.17 0.17 0.17 0.17 0.18 0.18 0.18
0.22 0.23 0.23 0.23 0.22 0.21 0.22 0.20 0.18 0.16 0.15 0.14 0.13 0.12 0.12 0.11 0.10 0.14 0.18 0.19 0.18 0.18 0.18 0.19 0.20 0.20 0.21 0.22 0.24 0.25 0.25 0.25 0.25 0.25 0.25 0.25 0.24 0.23 0.23 0.23 0.22 0.22 0.21 0.20 0.19 0.19 0.18 0.18 0.18 0.18 0.18 0.18 0.19 0.19

GFSWCAN_prec_pwat_069.txt.gz
Precipitable_Water
1.25 1.20 1.29 1.29 1.25 1.14 0.98 0.76 0.69 0.60 0.55 0.53 0.52 0.50 0.52 0.51 0.50 0.43 0.43 0.46 0.34 0.28 0.31 0.34 0.34 0.30 0.30 0.29 0.25 0.31 0.34 0.41 0.43 0.35 0.33 0.31 0.28 0.30 0.29 0.31 0.30 0.28 0.27 0.27 0.29 0.25 0.20 0.37 0.39 0.29 0.35 0.43 0.44 0.47
1.23 1.18 1.26 1.25 1.20 1.09 0.85 0.81 0.68 0.59 0.54 0.53 0.52 0.51 0.53 0.52 0.50 0.48 0.40 0.45 0.46 0.32 0.31 0.40 0.38 0.39 0.38 0.37 0.33 0.34 0.36 0.39 0.42 0.38 0.38 0.37 0.31 0.32 0.30 0.24 0.37 0.27 0.31 0.27 0.28 0.25 0.34 0.37 0.38 0.45 0.47 0.44 0.45 0.48
1.19 1.19 1.26 1.24 1.16 1.01 0.90 0.78 0.67 0.57 0.55 0.52 0.51 0.51 0.53 0.52 0.49 0.47 0.43 0.42 0.38 0.32 0.31 0.31 0.30 0.40 0.44 0.44 0.46 0.30 0.36 0.43 0.45 0.49 0.42 0.39 0.33 0.37 0.28 0.28 0.30 0.35 0.38 0.30 0.29 0.32 0.35 0.39 0.42 0.44 0.46 0.45 0.49 0.53
1.16 1.22 1.23 1.19 1.11 1.03 0.89 0.76 0.63 0.60 0.54 0.53 0.53 0.52 0.55 0.54 0.49 0.45 0.40 0.44 0.37 0.31 0.25 0.29 0.44 0.39 0.47 0.48 0.45 0.43 0.43 0.46 0.45 0.44 0.39 0.38 0.35 0.45 0.34 0.37 0.35 0.37 0.37 0.33 0.31 0.35 0.37 0.39 0.43 0.44 0.47 0.48 0.49 0.53
1.14 1.20 1.19 1.15 1.09 1.03 0.87 0.73 0.65 0.59 0.55 0.56 0.58 0.54 0.56 0.51 0.46 0.44 0.44 0.45 0.45 0.32 0.25 0.29 0.40 0.44 0.46 0.42 0.38 0.43 0.43 0.40 0.38 0.34 0.33 0.31 0.38 0.39 0.42 0.40 0.33 0.40 0.36 0.31 0.27 0.38 0.39 0.39 0.48 0.52 0.49 0.48 0.50 0.49
1.13 1.19 1.16 1.11 1.07 1.00 0.86 0.72 0.65 0.61 0.56 0.58 0.63 0.56 0.54 0.51 0.44 0.38 0.28 0.41 0.46 0.42 0.29 0.24 0.38 0.40 0.45 0.44 0.41 0.39 0.37 0.36 0.39 0.36 0.34 0.36 0.38 0.36 0.31 0.31 0.38 0.42 0.45 0.44 0.37 0.42 0.42 0.43 0.48 0.52 0.51 0.54 0.54 0.53
1.15 1.18 1.13 1.09 1.05 0.96 0.83 0.70 0.64 0.60 0.58 0.62 0.61 0.60 0.58 0.49 0.43 0.32 0.29 0.37 0.45 0.44 0.29 0.24 0.26 0.37 0.44 0.44 0.41 0.40 0.42 0.38 0.33 0.31 0.33 0.36 0.36 0.38 0.34 0.28 0.36 0.38 0.36 0.39 0.43 0.43 0.35 0.34 0.37 0.52 0.54 0.58 0.59 0.60
1.15 1.14 1.10 1.08 1.03 0.91 0.79 0.69 0.63 0.62 0.62 0.61 0.63 0.61 0.55 0.49 0.45 0.37 0.44 0.47 0.45 0.34 0.31 0.22 0.23 0.31 0.43 0.36 0.34 0.43 0.37 0.38 0.37 0.33 0.35 0.32 0.31 0.29 0.22 0.25 0.30 0.34 0.41 0.44 0.44 0.47 0.43 0.39 0.36 0.52 0.55 0.54 0.57 0.58
1.15 1.10 1.07 1.07 1.02 0.87 0.75 0.67 0.66 0.62 0.62 0.60 0.62 0.58 0.51 0.41 0.33 0.38 0.50 0.49 0.45 0.33 0.24 0.24 0.19 0.20 0.36 0.35 0.38 0.37 0.37 0.29 0.38 0.32 0.33 0.34 0.31 0.23 0.24 0.30 0.40 0.45 0.45 0.45 0.48 0.49 0.46 0.39 0.38 0.41 0.44 0.54 0.56 0.58
1.10 1.04 1.06 1.04 0.95 0.81 0.71 0.70 0.66 0.61 0.59 0.59 0.52 0.42 0.37 0.43 0.51 0.49 0.40 0.31 0.31 0.32 0.31 0.22 0.27 0.21 0.29 0.29 0.30 0.30 0.33 0.29 0.25 0.31 0.38 0.32 0.31 0.39 0.46 0.49 0.49 0.50 0.49 0.48 0.43 0.43 0.46 0.46 0.48 0.48 0.53 0.57 0.56 0.57
1.08 1.06 1.05 1.01 0.90 0.76 0.72 0.69 0.62 0.59 0.54 0.47 0.39 0.40 0.53 0.56 0.42 0.34 0.26 0.25 0.26 0.22 0.27 0.26 0.26 0.21 0.33 0.23 0.25 0.33 0.28 0.29 0.22 0.29 0.30 0.29 0.29 0.39 0.49 0.50 0.51 0.51 0.51 0.51 0.51 0.52 0.53 0.53 0.52 0.52 0.53 0.56 0.58 0.57
1.06 1.04 1.01 0.95 0.84 0.75 0.68 0.64 0.60 0.53 0.46 0.43 0.46 0.56 0.52 0.41 0.32 0.24 0.22 0.24 0.22 0.19 0.25 0.23 0.25 0.27 0.30 0.36 0.29 0.32 0.26 0.29 0.20 0.35 0.28 0.24 0.35 0.44 0.46 0.47 0.48 0.51 0.52 0.52 0.54 0.53 0.54 0.54 0.55 0.53 0.53 0.53 0.55 0.57
1.03 1.04 1.00 0.91 0.80 0.70 0.66 0.63 0.59 0.52 0.47 0.48 0.46 0.40 0.38 0.35 0.24 0.20 0.17 0.18 0.18 0.24 0.26 0.26 0.23 0.27 0.32 0.34 0.29 0.29 0.24 0.22 0.35 0.26 0.23 0.29 0.41 0.46 0.49 0.49 0.50 0.53 0.53 0.54 0.52 0.54 0.55 0.54 0.55 0.54 0.53 0.54 0.55 0.55
0.99 1.00 0.95 0.83 0.72 0.70 0.66 0.61 0.53 0.51 0.48 0.40 0.38 0.33 0.31 0.27 0.26 0.25 0.22 0.20 0.25 0.27 0.26 0.26 0.24 0.25 0.30 0.26 0.28 0.22 0.27 0.31 0.22 0.18 0.21 0.33 0.42 0.47 0.51 0.52 0.52 0.51 0.52 0.52 0.52 0.53 0.52 0.52 0.52 0.54 0.54 0.54 0.51 0.52
0.96 0.93 0.81 0.75 0.74 0.68 0.62 0.57 0.58 0.57 0.46 0.35 0.33 0.27 0.27 0.31 0.31 0.31 0.31 0.29 0.29 0.30 0.27 0.25 0.24 0.25 0.25 0.24 0.26 0.25 0.22 0.18 0.20 0.20 0.29 0.38 0.43 0.47 0.49 0.51 0.51 0.49 0.50 0.52 0.53 0.52 0.52 0.52 0.51 0.52 0.47 0.47 0.48 0.47
0.88 0.82 0.76 0.74 0.69 0.63 0.63 0.65 0.61 0.52 0.42 0.38 0.34 0.29 0.31 0.29 0.28 0.30 0.29 0.28 0.32 0.30 0.29 0.25 0.22 0.21 0.21 0.23 0.21 0.18 0.18 0.15 0.20 0.30 0.36 0.40 0.40 0.41 0.44 0.45 0.45 0.47 0.48 0.51 0.52 0.52 0.53 0.53 0.51 0.50 0.47 0.43 0.39 0.40
0.82 0.74 0.75 0.69 0.67 0.69 0.71 0.61 0.52 0.42 0.38 0.36 0.33 0.34 0.30 0.28 0.28 0.30 0.33 0.33 0.37 0.30 0.22 0.23 0.18 0.19 0.26 0.21 0.18 0.23 0.19 0.22 0.30 0.33 0.37 0.36 0.34 0.35 0.36 0.37 0.38 0.40 0.43 0.46 0.49 0.49 0.51 0.53 0.53 0.51 0.47 0.42 0.40 0.39
0.71 0.71 0.70 0.72 0.69 0.67 0.62 0.57 0.48 0.42 0.36 0.37 0.33 0.34 0.34 0.32 0.30 0.32 0.34 0.37 0.34 0.30 0.27 0.23 0.26 0.21 0.18 0.16 0.17 0.20 0.24 0.30 0.33 0.31 0.31 0.33 0.33 0.32 0.31 0.29 0.30 0.32 0.35 0.40 0.44 0.46 0.46 0.50 0.50 0.50 0.52 0.53 0.53 0.49
0.70 0.70 0.69 0.69 0.65 0.56 0.50 0.52 0.51 0.36 0.37 0.38 0.37 0.38 0.36 0.36 0.37 0.37 0.37 0.39 0.38 0.36 0.31 0.29 0.23 0.19 0.18 0.21 0.20 0.21 0.23 0.27 0.26 0.28 0.28 0.28 0.26 0.24 0.23 0.25 0.28 0.30 0.32 0.34 0.36 0.38 0.41 0.45 0.48 0.49 0.49 0.50 0.46 0.43
0.69 0.69 0.67 0.64 0.65 0.53 0.47 0.47 0.51 0.40 0.35 0.37 0.37 0.36 0.36 0.36 0.38 0.37 0.37 0.38 0.37 0.33 0.28 0.25 0.22 0.22 0.22 0.24 0.26 0.25 0.25 0.28 0.30 0.27 0.24 0.23 0.24 0.25 0.25 0.26 0.27 0.28 0.28 0.31 0.35 0.37 0.38 0.39 0.44 0.46 0.46 0.46 0.47 0.46
0.67 0.67 0.67 0.67 0.59 0.52 0.45 0.40 0.39 0.40 0.39 0.35 0.35 0.35 0.34 0.36 0.34 0.34 0.33 0.37 0.32 0.29 0.27 0.27 0.25 0.25 0.28 0.28 0.29 0.28 0.27 0.28 0.28 0.27 0.22 0.21 0.25 0.25 0.23 0.21 0.22 0.24 0.25 0.27 0.29 0.32 0.35 0.37 0.40 0.43 0.44 0.47 0.50 0.51
0.65 0.69 0.61 0.60 0.48 0.44 0.40 0.42 0.38 0.39 0.35 0.33 0.32 0.32 0.30 0.29 0.29 0.30 0.34 0.31 0.29 0.29 0.28 0.25 0.24 0.24 0.25 0.25 0.26 0.28 0.27 0.27 0.29 0.26 0.25 0.25 0.23 0.22 0.16 0.13 0.13 0.12 0.13 0.15 0.18 0.21 0.25 0.31 0.36 0.39 0.42 0.44 0.46 0.46
0.65 0.63 0.56 0.52 0.41 0.38 0.35 0.43 0.35 0.35 0.30 0.29 0.30 0.28 0.28 0.28 0.29 0.33 0.27 0.28 0.27 0.26 0.26 0.26 0.25 0.26 0.25 0.27 0.27 0.26 0.26 0.24 0.22 0.21 0.20 0.21 0.23 0.20 0.17 0.16 0.17 0.15 0.13 0.13 0.14 0.13 0.15 0.20 0.24 0.28 0.35 0.41 0.43 0.44
0.61 0.51 0.44 0.39 0.37 0.32 0.36 0.33 0.35 0.31 0.29 0.27 0.26 0.25 0.27 0.28 0.29 0.25 0.22 0.22 0.21 0.24 0.24 0.24 0.23 0.21 0.22 0.21 0.21 0.21 0.22 0.22 0.20 0.20 0.21 0.21 0.20 0.18 0.18 0.18 0.17 0.17 0.18 0.18 0.17 0.16 0.15 0.14 0.16 0.18 0.23 0.26 0.30 0.34
0.36 0.37 0.37 0.32 0.35 0.31 0.28 0.28 0.28 0.27 0.25 0.27 0.26 0.26 0.26 0.28 0.24 0.22 0.20 0.19 0.21 0.22 0.22 0.22 0.20 0.19 0.17 0.18 0.19 0.19 0.21 0.21 0.18 0.17 0.21 0.22 0.20 0.18 0.18 0.19 0.19 0.19 0.20 0.20 0.18 0.17 0.16 0.16 0.16 0.15 0.15 0.17 0.20 0.23
0.30 0.35 0.32 0.30 0.30 0.27 0.26 0.23 0.24 0.25 0.26 0.26 0.27 0.27 0.27 0.25 0.21 0.18 0.20 0.22 0.21 0.20 0.19 0.18 0.17 0.16 0.15 0.17 0.16 0.18 0.20 0.21 0.21 0.19 0.21 0.22 0.20 0.18 0.18 0.18 0.18 0.20 0.23 0.23 0.21 0.19 0.17 0.17 0.16 0.15 0.14 0.15 0.16 0.17
0.27 0.28 0.32 0.34 0.31 0.29 0.27 0.28 0.29 0.27 0.26 0.25 0.26 0.26 0.24 0.20 0.19 0.21 0.24 0.24 0.22 0.22 0.22 0.21 0.20 0.18 0.17 0.17 0.18 0.19 0.21 0.22 0.20 0.20 0.22 0.21 0.21 0.21 0.21 0.20 0.21 0.23 0.25 0.25 0.24 0.22 0.19 0.17 0.16 0.16 0.15 0.15 0.15 0.15
0.30 0.30 0.26 0.29 0.29 0.31 0.27 0.27 0.26 0.25 0.26 0.28 0.26 0.22 0.20 0.20 0.20 0.24 0.23 0.25 0.25 0.25 0.25 0.24 0.22 0.21 0.20 0.19 0.18 0.19 0.19 0.20 0.21 0.22 0.21 0.21 0.22 0.23 0.24 0.25 0.25 0.26 0.26 0.25 0.24 0.22 0.21 0.19 0.18 0.17 0.17 0.16 0.15 0.16
0.29 0.31 0.31 0.28 0.29 0.29 0.28 0.27 0.26 0.28 0.29 0.27 0.23 0.22 0.23 0.25 0.26 0.25 0.26 0.27 0.26 0.25 0.22 0.20 0.19 0.19 0.19 0.18 0.18 0.18 0.18 0.18 0.16 0.14 0.14 0.15 0.16 0.18 0.22 0.22 0.22 0.22 0.21 0.21 0.21 0.21 0.21 0.20 0.20 0.19 0.19 0.19 0.19 0.19
0.27 0.31 0.28 0.28 0.27 0.26 0.28 0.30 0.28 0.30 0.30 0.29 0.28 0.26 0.26 0.26 0.28 0.29 0.28 0.26 0.23 0.20 0.20 0.19 0.19 0.18 0.16 0.15 0.15 0.16 0.17 0.17 0.16 0.14 0.12 0.12 0.14 0.17 0.18 0.18 0.19 0.19 0.19 0.18 0.18 0.19 0.20 0.20 0.19 0.19 0.19 0.19 0.19 0.18
0.29 0.28 0.25 0.25 0.24 0.25 0.27 0.29 0.29 0.28 0.28 0.26 0.26 0.24 0.23 0.25 0.26 0.25 0.23 0.22 0.21 0.20 0.18 0.17 0.17 0.17 0.17 0.16 0.16 0.16 0.16 0.19 0.20 0.20 0.20 0.20 0.20 0.20 0.20 0.21 0.22 0.23 0.22 0.22 0.22 0.21 0.20 0.20 0.19 0.19 0.18 0.18 0.18 0.18
0.25 0.23 0.22 0.20 0.21 0.24 0.25 0.24 0.24 0.23 0.23 0.23 0.22 0.23 0.22 0.20 0.17 0.18 0.21 0.19 0.18 0.18 0.18 0.18 0.18 0.18 0.19 0.19 0.19 0.19 0.20 0.21 0.22 0.23 0.23 0.24 0.25 0.25 0.25 0.25 0.25 0.25 0.24 0.24 0.23 0.23 0.23 0.23 0.22 0.21 0.20 0.19 0.19 0.19
0.21 0.22 0.21 0.21 0.20 0.20 0.21 0.20 0.18 0.17 0.17 0.17 0.17 0.17 0.17 0.16 0.14 0.16 0.19 0.19 0.19 0.19 0.20 0.20 0.20 0.20 0.20 0.20 0.20 0.22 0.23 0.24 0.25 0.26 0.26 0.27 0.27 0.27 0.27 0.26 0.26 0.24 0.23 0.22 0.21 0.20 0.19 0.18 0.18 0.19 0.19 0.20 0.21 0.21

GFSWCAN_prec_pwat_072.txt.gz
Precipitable_Water
1.04 1.04 1.23 1.28 1.19 1.21 1.22 1.13 0.94 0.79 0.64 0.57 0.55 0.53 0.50 0.49 0.49 0.46 0.43 0.45 0.33 0.28 0.32 0.34 0.33 0.28 0.29 0.27 0.23 0.29 0.33 0.39 0.40 0.33 0.33 0.32 0.28 0.30 0.29 0.31 0.30 0.28 0.26 0.26 0.28 0.24 0.20 0.37 0.38 0.29 0.35 0.42 0.42 0.43
1.04 1.09 1.23 1.26 1.19 1.23 1.18 1.10 0.98 0.76 0.61 0.57 0.53 0.52 0.51 0.51 0.50 0.49 0.37 0.45 0.42 0.31 0.31 0.38 0.38 0.38 0.36 0.35 0.31 0.32 0.35 0.36 0.39 0.36 0.36 0.36 0.29 0.32 0.29 0.25 0.37 0.28 0.32 0.29 0.29 0.27 0.35 0.38 0.38 0.44 0.45 0.43 0.44 0.45
1.00 1.07 1.22 1.23 1.19 1.19 1.15 1.06 0.95 0.74 0.62 0.57 0.54 0.51 0.50 0.50 0.50 0.47 0.42 0.41 0.37 0.31 0.30 0.31 0.30 0.38 0.44 0.42 0.44 0.29 0.37 0.44 0.42 0.48 0.43 0.41 0.32 0.36 0.28 0.28 0.31 0.36 0.40 0.33 0.31 0.33 0.35 0.38 0.41 0.43 0.44 0.43 0.46 0.47
1.00 1.16 1.18 1.17 1.21 1.17 1.10 1.03 0.91 0.69 0.61 0.59 0.54 0.52 0.50 0.49 0.51 0.47 0.41 0.42 0.37 0.32 0.26 0.30 0.43 0.37 0.45 0.44 0.41 0.40 0.40 0.44 0.44 0.43 0.39 0.38 0.34 0.43 0.35 0.38 0.36 0.39 0.38 0.35 0.33 0.36 0.38 0.40 0.43 0.45 0.45 0.48 0.48 0.49
0.97 1.02 1.15 1.20 1.14 1.13 1.08 1.01 0.85 0.69 0.61 0.56 0.54 0.52 0.50 0.49 0.53 0.49 0.46 0.43 0.41 0.31 0.25 0.30 0.40 0.43 0.45 0.41 0.38 0.38 0.36 0.34 0.34 0.33 0.32 0.33 0.40 0.39 0.39 0.39 0.34 0.42 0.38 0.34 0.31 0.39 0.38 0.38 0.43 0.44 0.45 0.46 0.50 0.49
0.96 0.99 1.12 1.15 1.13 1.08 1.04 0.97 0.81 0.68 0.60 0.57 0.54 0.50 0.51 0.50 0.51 0.43 0.34 0.43 0.46 0.42 0.30 0.24 0.37 0.39 0.41 0.42 0.40 0.38 0.37 0.33 0.32 0.30 0.30 0.34 0.39 0.35 0.29 0.27 0.37 0.43 0.47 0.45 0.40 0.45 0.43 0.42 0.39 0.41 0.45 0.50 0.53 0.56
0.96 1.05 1.11 1.12 1.11 1.06 1.02 0.95 0.79 0.68 0.62 0.57 0.53 0.51 0.51 0.53 0.49 0.36 0.32 0.39 0.47 0.42 0.30 0.25 0.26 0.36 0.42 0.40 0.38 0.38 0.40 0.36 0.33 0.28 0.28 0.30 0.33 0.35 0.31 0.26 0.33 0.37 0.39 0.41 0.45 0.44 0.39 0.42 0.39 0.43 0.43 0.47 0.51 0.55
1.03 1.06 1.10 1.10 1.08 1.04 1.00 0.92 0.73 0.69 0.63 0.57 0.55 0.53 0.55 0.58 0.53 0.41 0.47 0.47 0.45 0.34 0.31 0.22 0.23 0.29 0.40 0.31 0.29 0.38 0.33 0.34 0.34 0.31 0.32 0.30 0.33 0.32 0.22 0.26 0.30 0.37 0.44 0.47 0.49 0.51 0.49 0.50 0.47 0.40 0.42 0.49 0.52 0.50
1.03 1.06 1.08 1.08 1.06 1.02 0.98 0.85 0.75 0.68 0.63 0.59 0.56 0.55 0.53 0.51 0.40 0.43 0.52 0.49 0.45 0.35 0.24 0.24 0.20 0.19 0.34 0.31 0.33 0.31 0.32 0.25 0.34 0.29 0.30 0.32 0.29 0.25 0.25 0.29 0.39 0.44 0.45 0.46 0.49 0.49 0.52 0.50 0.45 0.45 0.44 0.47 0.46 0.48
1.01 1.05 1.07 1.06 1.04 1.00 0.95 0.85 0.74 0.68 0.63 0.57 0.51 0.43 0.38 0.48 0.57 0.55 0.43 0.34 0.33 0.33 0.32 0.22 0.28 0.21 0.28 0.27 0.27 0.26 0.28 0.24 0.20 0.27 0.34 0.29 0.28 0.35 0.38 0.47 0.49 0.51 0.51 0.50 0.44 0.43 0.45 0.47 0.48 0.50 0.49 0.51 0.53 0.54
1.00 1.03 1.05 1.03 1.01 0.98 0.94 0.81 0.71 0.67 0.60 0.47 0.40 0.39 0.51 0.61 0.50 0.38 0.29 0.26 0.27 0.23 0.27 0.26 0.26 0.22 0.32 0.22 0.23 0.30 0.24 0.26 0.18 0.25 0.25 0.24 0.25 0.36 0.45 0.46 0.49 0.49 0.50 0.52 0.52 0.52 0.52 0.51 0.50 0.51 0.52 0.53 0.54 0.55
0.99 1.02 1.03 1.01 0.99 0.96 0.87 0.77 0.70 0.55 0.46 0.45 0.44 0.52 0.51 0.45 0.40 0.30 0.26 0.27 0.24 0.20 0.27 0.25 0.25 0.27 0.29 0.34 0.27 0.30 0.23 0.26 0.17 0.30 0.24 0.19 0.28 0.39 0.43 0.46 0.49 0.50 0.52 0.52 0.54 0.51 0.52 0.53 0.54 0.53 0.53 0.53 0.53 0.54
0.99 1.01 1.02 1.00 0.98 0.93 0.83 0.74 0.59 0.55 0.51 0.42 0.39 0.38 0.40 0.40 0.32 0.26 0.23 0.22 0.21 0.27 0.28 0.26 0.23 0.28 0.32 0.33 0.28 0.27 0.23 0.21 0.32 0.23 0.19 0.22 0.33 0.39 0.44 0.48 0.50 0.52 0.52 0.52 0.53 0.54 0.53 0.52 0.54 0.53 0.52 0.53 0.53 0.52
1.00 0.99 1.00 0.98 0.96 0.88 0.79 0.64 0.61 0.52 0.41 0.31 0.32 0.31 0.33 0.33 0.33 0.31 0.27 0.24 0.28 0.30 0.27 0.26 0.24 0.25 0.29 0.25 0.27 0.21 0.27 0.29 0.20 0.17 0.15 0.25 0.33 0.39 0.42 0.47 0.48 0.49 0.51 0.50 0.50 0.52 0.53 0.53 0.52 0.53 0.53 0.50 0.48 0.49
0.97 0.98 0.96 0.94 0.91 0.81 0.70 0.65 0.56 0.48 0.38 0.35 0.37 0.32 0.35 0.39 0.37 0.37 0.37 0.33 0.33 0.33 0.28 0.25 0.24 0.25 0.23 0.23 0.26 0.25 0.22 0.19 0.19 0.16 0.23 0.32 0.37 0.39 0.38 0.43 0.44 0.44 0.45 0.46 0.49 0.49 0.51 0.52 0.52 0.52 0.50 0.45 0.46 0.47
0.94 0.92 0.89 0.89 0.84 0.73 0.67 0.57 0.51 0.50 0.45 0.39 0.37 0.33 0.36 0.38 0.37 0.38 0.35 0.31 0.35 0.32 0.30 0.26 0.22 0.20 0.20 0.23 0.21 0.19 0.19 0.16 0.19 0.25 0.32 0.36 0.35 0.35 0.35 0.36 0.35 0.37 0.40 0.43 0.47 0.48 0.48 0.50 0.50 0.51 0.51 0.47 0.43 0.39
0.91 0.80 0.87 0.84 0.78 0.68 0.57 0.54 0.53 0.44 0.41 0.39 0.36 0.40 0.39 0.37 0.35 0.35 0.35 0.33 0.36 0.30 0.23 0.24 0.20 0.19 0.26 0.21 0.20 0.24 0.19 0.22 0.25 0.30 0.34 0.34 0.32 0.32 0.32 0.30 0.29 0.30 0.29 0.32 0.37 0.43 0.45 0.49 0.52 0.51 0.48 0.50 0.44 0.43
0.81 0.83 0.83 0.77 0.67 0.64 0.60 0.57 0.48 0.43 0.38 0.41 0.39 0.38 0.37 0.37 0.36 0.36 0.36 0.37 0.33 0.30 0.28 0.23 0.26 0.22 0.20 0.18 0.18 0.23 0.24 0.25 0.28 0.30 0.33 0.32 0.32 0.33 0.31 0.26 0.23 0.23 0.25 0.28 0.31 0.36 0.41 0.42 0.43 0.46 0.50 0.51 0.51 0.51
0.82 0.81 0.74 0.68 0.65 0.58 0.52 0.52 0.54 0.42 0.43 0.43 0.41 0.41 0.39 0.38 0.39 0.40 0.40 0.40 0.39 0.37 0.32 0.28 0.23 0.20 0.20 0.22 0.22 0.24 0.24 0.24 0.23 0.26 0.29 0.32 0.33 0.31 0.25 0.23 0.24 0.26 0.27 0.28 0.30 0.32 0.35 0.37 0.38 0.41 0.44 0.47 0.45 0.48
0.78 0.74 0.70 0.68 0.67 0.56 0.51 0.52 0.57 0.47 0.40 0.41 0.41 0.38 0.38 0.37 0.38 0.38 0.39 0.39 0.37 0.34 0.29 0.26 0.23 0.23 0.23 0.25 0.28 0.27 0.27 0.27 0.26 0.24 0.24 0.29 0.32 0.29 0.24 0.23 0.24 0.25 0.26 0.28 0.28 0.33 0.35 0.35 0.37 0.39 0.41 0.42 0.41 0.44
0.72 0.68 0.70 0.69 0.61 0.57 0.52 0.49 0.47 0.46 0.45 0.40 0.39 0.37 0.35 0.37 0.35 0.34 0.35 0.40 0.36 0.32 0.29 0.28 0.26 0.27 0.30 0.30 0.30 0.30 0.28 0.27 0.26 0.26 0.24 0.24 0.28 0.27 0.25 0.25 0.23 0.17 0.16 0.19 0.21 0.24 0.29 0.31 0.34 0.37 0.38 0.39 0.42 0.43
0.68 0.71 0.64 0.63 0.52 0.51 0.47 0.49 0.44 0.45 0.40 0.37 0.36 0.35 0.30 0.28 0.29 0.30 0.35 0.32 0.30 0.30 0.30 0.28 0.28 0.29 0.28 0.27 0.27 0.27 0.27 0.28 0.28 0.27 0.27 0.27 0.25 0.23 0.23 0.24 0.17 0.12 0.12 0.13 0.14 0.14 0.16 0.19 0.22 0.24 0.28 0.33 0.39 0.42
0.68 0.64 0.58 0.54 0.45 0.43 0.40 0.46 0.37 0.36 0.32 0.32 0.33 0.29 0.27 0.27 0.30 0.33 0.28 0.30 0.30 0.30 0.30 0.30 0.30 0.29 0.27 0.26 0.26 0.25 0.26 0.25 0.23 0.24 0.24 0.23 0.23 0.24 0.23 0.22 0.18 0.15 0.14 0.15 0.16 0.16 0.15 0.16 0.16 0.17 0.19 0.22 0.26 0.31
0.65 0.53 0.45 0.42 0.40 0.35 0.41 0.36 0.37 0.34 0.33 0.30 0.27 0.24 0.25 0.26 0.29 0.27 0.23 0.24 0.26 0.27 0.26 0.25 0.25 0.23 0.22 0.21 0.20 0.20 0.21 0.21 0.20 0.20 0.22 0.21 0.19 0.20 0.22 0.21 0.20 0.19 0.18 0.19 0.19 0.19 0.19 0.18 0.18 0.18 0.17 0.16 0.16 0.19
0.43 0.41 0.41 0.35 0.37 0.33 0.31 0.30 0.31 0.30 0.27 0.26 0.24 0.24 0.25 0.27 0.24 0.23 0.22 0.23 0.23 0.23 0.23 0.22 0.20 0.19 0.17 0.17 0.17 0.17 0.20 0.20 0.19 0.18 0.20 0.21 0.21 0.22 0.22 0.20 0.19 0.19 0.20 0.20 0.20 0.21 0.20 0.20 0.20 0.19 0.18 0.17 0.16 0.15
0.32 0.37 0.34 0.33 0.32 0.30 0.29 0.26 0.26 0.26 0.26 0.25 0.25 0.26 0.27 0.25 0.23 0.21 0.22 0.23 0.23 0.22 0.21 0.19 0.19 0.18 0.18 0.18 0.16 0.16 0.17 0.19 0.19 0.18 0.20 0.23 0.23 0.22 0.22 0.19 0.18 0.20 0.22 0.22 0.21 0.21 0.22 0.22 0.21 0.20 0.19 0.18 0.17 0.17
0.30 0.31 0.34 0.37 0.33 0.31 0.28 0.28 0.28 0.26 0.24 0.23 0.24 0.25 0.25 0.22 0.20 0.22 0.26 0.27 0.24 0.23 0.24 0.24 0.24 0.22 0.20 0.19 0.20 0.19 0.19 0.19 0.18 0.18 0.20 0.20 0.21 0.23 0.23 0.20 0.18 0.21 0.24 0.24 0.24 0.25 0.25 0.25 0.25 0.23 0.21 0.19 0.18 0.18
0.32 0.32 0.27 0.30 0.30 0.30 0.26 0.25 0.25 0.24 0.25 0.28 0.27 0.23 0.21 0.20 0.21 0.26 0.26 0.27 0.26 0.26 0.27 0.27 0.26 0.24 0.22 0.20 0.19 0.19 0.19 0.20 0.19 0.19 0.20 0.20 0.21 0.21 0.21 0.22 0.23 0.24 0.25 0.26 0.26 0.26 0.25 0.23 0.21 0.20 0.20 0.19 0.19 0.20
0.29 0.31 0.30 0.27 0.28 0.27 0.27 0.26 0.26 0.28 0.29 0.27 0.24 0.23 0.24 0.27 0.28 0.27 0.28 0.29 0.29 0.27 0.26 0.25 0.24 0.23 0.21 0.21 0.21 0.20 0.20 0.19 0.16 0.14 0.13 0.13 0.13 0.15 0.17 0.18 0.18 0.19 0.19 0.20 0.21 0.21 0.21 0.20 0.19 0.19 0.19 0.19 0.20 0.20
0.28 0.31 0.27 0.27 0.26 0.25 0.29 0.30 0.28 0.30 0.30 0.30 0.29 0.28 0.28 0.28 0.30 0.31 0.30 0.30 0.28 0.25 0.23 0.21 0.20 0.20 0.18 0.18 0.18 0.18 0.20 0.20 0.19 0.17 0.15 0.15 0.16 0.18 0.19 0.19 0.19 0.19 0.19 0.19 0.18 0.19 0.20 0.20 0.20 0.20 0.20 0.20 0.19 0.19
0.30 0.29 0.27 0.27 0.26 0.28 0.30 0.31 0.32 0.32 0.31 0.29 0.29 0.27 0.25 0.26 0.28 0.29 0.28 0.26 0.24 0.22 0.20 0.19 0.19 0.19 0.18 0.18 0.17 0.17 0.17 0.20 0.20 0.20 0.19 0.20 0.20 0.21 0.22 0.23 0.24 0.25 0.25 0.24 0.24 0.23 0.23 0.23 0.23 0.22 0.22 0.21 0.21 0.21
0.27 0.26 0.24 0.22 0.23 0.27 0.28 0.26 0.25 0.25 0.24 0.24 0.23 0.24 0.23 0.22 0.20 0.20 0.22 0.21 0.19 0.18 0.19 0.19 0.19 0.18 0.19 0.19 0.20 0.19 0.19 0.19 0.20 0.21 0.22 0.24 0.24 0.25 0.26 0.27 0.27 0.27 0.26 0.25 0.24 0.23 0.22 0.21 0.20 0.19 0.19 0.19 0.19 0.20
0.24 0.24 0.24 0.23 0.22 0.21 0.22 0.21 0.19 0.18 0.18 0.17 0.17 0.18 0.17 0.16 0.15 0.17 0.18 0.19 0.19 0.19 0.20 0.20 0.21 0.22 0.20 0.19 0.19 0.20 0.22 0.23 0.23 0.24 0.24 0.24 0.24 0.25 0.25 0.25 0.25 0.25 0.25 0.24 0.23 0.22 0.22 0.21 0.20 0.20 0.19 0.19 0.18 0.19

GFSWCAN_prec_pwat_078.txt.gz
Precipitable_Water
0.42 0.50 0.50 0.57 0.80 0.88 1.00 1.10 1.13 1.15 1.16 1.04 0.77 0.64 0.69 0.67 0.55 0.47 0.45 0.50 0.40 0.31 0.33 0.35 0.34 0.29 0.28 0.28 0.24 0.31 0.35 0.37 0.36 0.28 0.28 0.28 0.28 0.31 0.28 0.30 0.29 0.27 0.26 0.24 0.26 0.23 0.19 0.37 0.35 0.26 0.37 0.43 0.43 0.43
0.43 0.49 0.49 0.64 0.82 0.92 1.09 1.09 1.12 1.13 1.10 0.93 0.70 0.70 0.69 0.66 0.56 0.48 0.41 0.48 0.46 0.35 0.34 0.39 0.38 0.40 0.37 0.36 0.31 0.35 0.35 0.36 0.37 0.33 0.33 0.35 0.29 0.31 0.28 0.23 0.36 0.26 0.32 0.31 0.31 0.29 0.38 0.41 0.40 0.42 0.44 0.43 0.44 0.44
0.47 0.47 0.48 0.71 0.82 0.94 1.01 1.05 1.08 1.10 1.03 0.86 0.67 0.65 0.63 0.63 0.53 0.50 0.44 0.43 0.39 0.34 0.33 0.33 0.30 0.38 0.41 0.41 0.43 0.30 0.35 0.40 0.39 0.46 0.38 0.35 0.28 0.33 0.25 0.26 0.30 0.35 0.39 0.35 0.34 0.38 0.40 0.43 0.44 0.45 0.46 0.45 0.46 0.47
0.46 0.45 0.51 0.75 0.86 0.95 0.96 0.99 1.05 1.06 1.01 0.79 0.67 0.60 0.58 0.59 0.55 0.48 0.42 0.45 0.41 0.35 0.26 0.29 0.42 0.35 0.41 0.40 0.39 0.43 0.41 0.45 0.44 0.43 0.36 0.33 0.29 0.38 0.31 0.34 0.33 0.36 0.38 0.35 0.33 0.37 0.42 0.47 0.49 0.48 0.48 0.48 0.46 0.48
0.45 0.45 0.58 0.79 0.90 0.97 0.99 1.02 1.04 1.02 0.96 0.75 0.65 0.57 0.59 0.64 0.55 0.48 0.45 0.47 0.48 0.36 0.25 0.28 0.37 0.39 0.40 0.37 0.35 0.37 0.36 0.36 0.36 0.32 0.30 0.29 0.34 0.34 0.35 0.34 0.30 0.37 0.34 0.31 0.31 0.42 0.42 0.44 0.48 0.49 0.45 0.44 0.46 0.46
0.43 0.49 0.66 0.83 0.90 0.91 0.97 1.01 1.01 0.98 0.94 0.78 0.66 0.60 0.60 0.61 0.57 0.48 0.34 0.43 0.48 0.44 0.30 0.26 0.39 0.36 0.38 0.37 0.35 0.34 0.33 0.32 0.32 0.29 0.28 0.29 0.32 0.30 0.24 0.22 0.30 0.37 0.41 0.41 0.36 0.42 0.45 0.47 0.48 0.50 0.47 0.47 0.48 0.49
0.43 0.56 0.75 0.86 0.93 0.95 0.99 0.99 0.98 0.97 0.90 0.70 0.65 0.55 0.65 0.56 0.57 0.46 0.37 0.42 0.50 0.48 0.30 0.26 0.28 0.37 0.39 0.37 0.36 0.34 0.35 0.31 0.32 0.28 0.26 0.28 0.28 0.27 0.24 0.20 0.26 0.28 0.30 0.34 0.41 0.41 0.37 0.42 0.42 0.50 0.53 0.54 0.52 0.51
0.47 0.63 0.79 0.87 0.96 0.98 0.99 0.97 0.96 0.94 0.82 0.67 0.61 0.54 0.55 0.53 0.58 0.50 0.47 0.49 0.49 0.39 0.36 0.24 0.25 0.30 0.40 0.31 0.28 0.37 0.31 0.32 0.29 0.29 0.28 0.25 0.28 0.26 0.20 0.25 0.27 0.29 0.32 0.40 0.44 0.47 0.47 0.49 0.51 0.50 0.54 0.55 0.53 0.50
0.52 0.70 0.82 0.89 0.94 0.97 0.96 0.95 0.95 0.92 0.79 0.65 0.56 0.56 0.48 0.45 0.47 0.49 0.54 0.52 0.50 0.42 0.27 0.28 0.21 0.20 0.37 0.32 0.33 0.31 0.32 0.24 0.32 0.26 0.27 0.27 0.23 0.18 0.24 0.25 0.24 0.28 0.36 0.39 0.43 0.44 0.45 0.44 0.46 0.49 0.51 0.52 0.51 0.51
0.53 0.74 0.84 0.89 0.90 0.92 0.93 0.93 0.91 0.88 0.74 0.61 0.54 0.44 0.34 0.46 0.61 0.58 0.52 0.40 0.37 0.37 0.35 0.27 0.33 0.23 0.32 0.27 0.26 0.26 0.29 0.25 0.20 0.25 0.31 0.23 0.20 0.27 0.29 0.29 0.31 0.39 0.41 0.41 0.37 0.36 0.40 0.41 0.43 0.46 0.49 0.53 0.53 0.53
0.59 0.77 0.84 0.89 0.88 0.90 0.91 0.90 0.89 0.81 0.68 0.53 0.48 0.39 0.50 0.59 0.49 0.47 0.43 0.37 0.33 0.28 0.31 0.31 0.31 0.25 0.36 0.24 0.24 0.29 0.23 0.25 0.18 0.24 0.22 0.20 0.18 0.25 0.33 0.35 0.39 0.40 0.41 0.42 0.43 0.43 0.44 0.44 0.44 0.46 0.48 0.52 0.54 0.54
0.66 0.81 0.85 0.87 0.90 0.90 0.89 0.88 0.84 0.71 0.61 0.55 0.46 0.50 0.51 0.40 0.39 0.37 0.37 0.36 0.32 0.28 0.32 0.29 0.30 0.30 0.33 0.37 0.28 0.28 0.23 0.24 0.19 0.30 0.21 0.16 0.22 0.30 0.33 0.35 0.38 0.40 0.40 0.40 0.42 0.42 0.43 0.43 0.44 0.45 0.47 0.49 0.52 0.53
0.72 0.82 0.86 0.89 0.90 0.90 0.88 0.85 0.80 0.73 0.62 0.50 0.41 0.39 0.33 0.33 0.29 0.32 0.31 0.34 0.32 0.35 0.36 0.32 0.28 0.31 0.32 0.33 0.28 0.26 0.21 0.21 0.31 0.22 0.18 0.20 0.29 0.32 0.34 0.37 0.37 0.39 0.40 0.40 0.40 0.41 0.42 0.43 0.44 0.44 0.44 0.48 0.50 0.52
0.78 0.84 0.90 0.90 0.90 0.88 0.86 0.82 0.75 0.63 0.50 0.38 0.32 0.25 0.28 0.27 0.31 0.34 0.37 0.39 0.46 0.42 0.37 0.34 0.29 0.29 0.31 0.27 0.28 0.21 0.26 0.29 0.20 0.18 0.17 0.25 0.30 0.34 0.36 0.38 0.36 0.35 0.36 0.35 0.34 0.35 0.36 0.37 0.38 0.41 0.44 0.46 0.48 0.47
0.81 0.89 0.90 0.88 0.89 0.86 0.84 0.79 0.71 0.58 0.44 0.38 0.35 0.25 0.29 0.37 0.37 0.40 0.43 0.42 0.48 0.50 0.37 0.32 0.30 0.30 0.27 0.24 0.27 0.26 0.22 0.18 0.20 0.18 0.25 0.31 0.34 0.35 0.35 0.34 0.32 0.31 0.31 0.29 0.29 0.28 0.28 0.28 0.29 0.32 0.38 0.42 0.44 0.44
0.88 0.87 0.84 0.87 0.85 0.84 0.82 0.77 0.66 0.59 0.49 0.39 0.36 0.32 0.35 0.34 0.36 0.40 0.42 0.42 0.49 0.46 0.38 0.32 0.27 0.23 0.21 0.24 0.21 0.19 0.20 0.16 0.20 0.26 0.33 0.35 0.33 0.34 0.33 0.32 0.31 0.32 0.30 0.29 0.28 0.25 0.25 0.24 0.26 0.28 0.33 0.38 0.41 0.43
0.85 0.76 0.83 0.84 0.84 0.82 0.79 0.69 0.62 0.48 0.41 0.38 0.35 0.41 0.39 0.36 0.36 0.40 0.44 0.43 0.47 0.38 0.29 0.28 0.22 0.21 0.27 0.21 0.20 0.24 0.20 0.24 0.29 0.32 0.33 0.29 0.31 0.32 0.32 0.30 0.31 0.32 0.31 0.29 0.25 0.23 0.26 0.29 0.30 0.29 0.28 0.35 0.39 0.42
0.77 0.81 0.83 0.83 0.80 0.75 0.71 0.66 0.53 0.44 0.36 0.39 0.34 0.36 0.40 0.43 0.42 0.43 0.44 0.46 0.44 0.38 0.31 0.27 0.29 0.23 0.21 0.19 0.20 0.24 0.27 0.33 0.32 0.29 0.29 0.29 0.30 0.30 0.31 0.29 0.31 0.31 0.31 0.29 0.23 0.23 0.25 0.25 0.27 0.28 0.31 0.36 0.37 0.39
0.79 0.80 0.82 0.81 0.77 0.68 0.58 0.55 0.52 0.38 0.38 0.39 0.40 0.41 0.43 0.44 0.46 0.45 0.45 0.46 0.45 0.42 0.36 0.32 0.26 0.24 0.23 0.26 0.26 0.29 0.30 0.29 0.27 0.28 0.29 0.30 0.30 0.30 0.30 0.31 0.32 0.31 0.29 0.28 0.23 0.22 0.23 0.24 0.26 0.31 0.34 0.36 0.35 0.36
0.82 0.82 0.81 0.80 0.74 0.59 0.51 0.50 0.56 0.42 0.37 0.40 0.42 0.41 0.41 0.41 0.44 0.44 0.45 0.45 0.41 0.38 0.33 0.30 0.28 0.27 0.27 0.30 0.31 0.32 0.31 0.31 0.28 0.26 0.26 0.27 0.27 0.28 0.27 0.28 0.28 0.29 0.28 0.28 0.25 0.22 0.21 0.20 0.23 0.27 0.28 0.29 0.28 0.28
0.77 0.75 0.76 0.73 0.64 0.61 0.55 0.51 0.46 0.45 0.43 0.40 0.43 0.42 0.41 0.45 0.43 0.44 0.43 0.46 0.41 0.38 0.34 0.34 0.33 0.34 0.36 0.35 0.35 0.35 0.32 0.30 0.27 0.27 0.25 0.24 0.26 0.27 0.27 0.27 0.28 0.28 0.26 0.26 0.23 0.19 0.18 0.16 0.17 0.20 0.21 0.21 0.22 0.22
0.70 0.74 0.67 0.67 0.58 0.56 0.52 0.55 0.49 0.49 0.45 0.44 0.43 0.44 0.41 0.39 0.37 0.37 0.41 0.38 0.36 0.35 0.35 0.34 0.34 0.34 0.34 0.33 0.33 0.33 0.31 0.30 0.28 0.27 0.26 0.25 0.22 0.21 0.22 0.24 0.25 0.24 0.24 0.24 0.23 0.17 0.15 0.16 0.17 0.16 0.16 0.17 0.20 0.21
0.72 0.69 0.62 0.60 0.50 0.49 0.45 0.54 0.47 0.47 0.42 0.42 0.43 0.38 0.35 0.33 0.35 0.38 0.32 0.34 0.32 0.35 0.35 0.34 0.34 0.34 0.32 0.32 0.31 0.28 0.26 0.23 0.21 0.21 0.21 0.21 0.21 0.22 0.22 0.23 0.24 0.22 0.21 0.22 0.25 0.19 0.16 0.18 0.18 0.18 0.19 0.20 0.21 0.20
0.69 0.57 0.50 0.47 0.46 0.40 0.47 0.43 0.46 0.43 0.42 0.39 0.35 0.31 0.31 0.32 0.34 0.31 0.27 0.28 0.30 0.33 0.30 0.29 0.29 0.27 0.27 0.25 0.21 0.20 0.20 0.21 0.20 0.20 0.20 0.19 0.18 0.19 0.21 0.21 0.22 0.23 0.23 0.24 0.24 0.21 0.19 0.19 0.19 0.20 0.21 0.21 0.22 0.22
0.47 0.44 0.45 0.39 0.44 0.41 0.39 0.39 0.40 0.40 0.35 0.35 0.33 0.31 0.31 0.32 0.28 0.26 0.24 0.25 0.27 0.27 0.27 0.27 0.26 0.25 0.20 0.19 0.19 0.19 0.21 0.21 0.20 0.19 0.20 0.20 0.19 0.18 0.18 0.19 0.21 0.24 0.26 0.24 0.23 0.21 0.19 0.20 0.21 0.20 0.21 0.22 0.22 0.22
0.36 0.40 0.39 0.39 0.39 0.39 0.39 0.36 0.37 0.36 0.35 0.33 0.31 0.32 0.31 0.28 0.25 0.22 0.23 0.24 0.25 0.25 0.24 0.23 0.20 0.19 0.19 0.21 0.21 0.22 0.24 0.26 0.24 0.20 0.20 0.21 0.20 0.19 0.17 0.16 0.16 0.18 0.24 0.24 0.24 0.22 0.21 0.20 0.21 0.22 0.22 0.23 0.24 0.24
0.34 0.35 0.41 0.45 0.43 0.42 0.39 0.39 0.39 0.35 0.31 0.29 0.29 0.28 0.27 0.22 0.21 0.23 0.26 0.27 0.25 0.26 0.25 0.24 0.23 0.23 0.24 0.25 0.27 0.27 0.27 0.26 0.24 0.22 0.22 0.22 0.22 0.22 0.20 0.18 0.17 0.20 0.21 0.21 0.22 0.22 0.21 0.20 0.20 0.20 0.21 0.23 0.23 0.24
0.38 0.40 0.35 0.39 0.40 0.41 0.36 0.35 0.32 0.30 0.30 0.31 0.29 0.25 0.23 0.22 0.21 0.25 0.26 0.28 0.27 0.26 0.25 0.26 0.26 0.27 0.27 0.28 0.28 0.26 0.25 0.25 0.24 0.23 0.23 0.23 0.23 0.22 0.22 0.22 0.22 0.22 0.22 0.21 0.20 0.19 0.19 0.19 0.19 0.18 0.18 0.18 0.19 0.21
0.36 0.40 0.40 0.36 0.37 0.36 0.34 0.31 0.30 0.31 0.32 0.30 0.26 0.24 0.24 0.26 0.28 0.26 0.27 0.28 0.28 0.27 0.26 0.26 0.28 0.29 0.29 0.28 0.26 0.25 0.23 0.22 0.19 0.17 0.16 0.16 0.17 0.20 0.22 0.22 0.21 0.21 0.21 0.20 0.21 0.21 0.21 0.21 0.20 0.20 0.20 0.20 0.21 0.21
0.35 0.40 0.35 0.34 0.31 0.30 0.31 0.32 0.30 0.32 0.32 0.31 0.30 0.28 0.27 0.27 0.29 0.30 0.30 0.30 0.29 0.29 0.30 0.29 0.28 0.26 0.24 0.22 0.21 0.21 0.22 0.21 0.19 0.18 0.16 0.16 0.17 0.19 0.19 0.20 0.20 0.21 0.21 0.21 0.22 0.24 0.25 0.25 0.25 0.25 0.24 0.24 0.24 0.24
0.37 0.35 0.32 0.31 0.29 0.30 0.31 0.32 0.32 0.31 0.30 0.28 0.28 0.26 0.26 0.28 0.30 0.32 0.31 0.30 0.29 0.27 0.25 0.23 0.22 0.22 0.21 0.20 0.19 0.18 0.17 0.19 0.19 0.19 0.18 0.18 0.18 0.18 0.19 0.20 0.21 0.22 0.22 0.23 0.23 0.22 0.22 0.22 0.23 0.23 0.23 0.23 0.24 0.24
0.31 0.29 0.28 0.26 0.27 0.30 0.31 0.29 0.28 0.27 0.27 0.27 0.26 0.28 0.27 0.25 0.22 0.24 0.24 0.23 0.21 0.20 0.20 0.20 0.19 0.20 0.21 0.21 0.19 0.18 0.18 0.17 0.17 0.17 0.16 0.16 0.16 0.16 0.17 0.19 0.20 0.20 0.19 0.19 0.19 0.19 0.18 0.18 0.17 0.17 0.17 0.18 0.19 0.19
0.28 0.27 0.26 0.25 0.25 0.24 0.26 0.25 0.23 0.22 0.22 0.21 0.21 0.20 0.20 0.18 0.16 0.19 0.21 0.20 0.19 0.20 0.20 0.21 0.21 0.21 0.20 0.18 0.17 0.17 0.17 0.17 0.17 0.18 0.18 0.19 0.21 0.21 0.22 0.22 0.22 0.22 0.22 0.22 0.22 0.22 0.22 0.22 0.22 0.21 0.20 0.19 0.18 0.18